Flag for Brazil Weather past 2 weeks in Teresina, Piauí, Brazil

Now
91 °F

Partly sunny.


Feels Like: 103 °F
Forecast: 76 / 93 °F
Wind: 8 mph from East

Location: Teresina Aeroporto

Current Time: Apr 26, 2015 at 1:35:29 PM

Latest Report: Apr 26, 2015 at 1:00 PM


Visibility: N/A

Pressure: 29.86 "Hg

Humidity: 59%

Dew point: 75 °F

Location of TeresinaLocation

Historic Weather in Teresina — Graph

°F

Teresina temperature yesterday

Maximum temperature yesterday: 93 °F (at 3:00 PM)
Minimum temperature yesterday: 75 °F (at 12:00 AM)
Average temperature yesterday: 81 °F

Past Weeks' High & Low Weather Summary

 TemperatureHumidityPressure
High93 °F (Apr 25, 3:00 PM)100% (Apr 12, 4:00 AM)29.98 "Hg (Apr 12, 4:00 AM)
Low73 °F (Apr 15, 6:00 AM)56% (Apr 21, 4:00 PM)29.77 "Hg (Apr 15, 3:00 PM)
Average81 °F87%29.87 "Hg
* Reported Apr 11 12:00 Noon — Apr 26 12:00 Noon, Teresina, Weather by CustomWeather, © 2015

Note: Actual official high and low records may vary slightly from our data, if they occured in-between our weather recording intervals... More about our weather records

Advertising

Teresina weather history for previous 24 hours

 ConditionsComfort  
Time TempWeatherWind HumidityBarometerVisibility
12:00 PM
Sun, Apr 26
91 °FScattered clouds.8 mph63%29.89 "HgN/A
11:00 AM88 °FScattered clouds.7 mph70%29.92 "HgN/A
10:00 AM88 °FScattered clouds.7 mph75%29.92 "HgN/A
9:00 AM82 °FPartly sunny.5 mph84%29.92 "HgN/A
8:00 AM82 °FScattered clouds.2 mph84%29.92 "HgN/A
7:00 AM79 °FScattered clouds.No wind94%29.89 "HgN/A
6:00 AM77 °FPassing clouds.No wind94%29.89 "HgN/A
5:00 AM75 °FClear.No wind100%29.86 "Hg10 mi
4:00 AM77 °FClear.No wind94%29.86 "Hg10 mi
3:00 AM77 °FClear.No wind100%29.86 "Hg10 mi
2:00 AM77 °FClear.No wind100%29.89 "Hg10 mi
1:00 AM77 °FClear.No wind100%29.89 "Hg10 mi
12:00 AM79 °FClear.5 mph94%29.92 "Hg10 mi
11:00 PM
Sat, Apr 25
77 °FClear.5 mph100%29.92 "Hg10 mi
10:00 PM79 °FClear.3 mph100%29.92 "Hg10 mi
9:00 PM79 °FClear.3 mph94%29.89 "Hg10 mi
8:00 PM79 °FClear.5 mph94%29.86 "Hg10 mi
7:00 PM82 °FPassing clouds.7 mph84%29.86 "HgN/A
6:00 PM84 °FPassing clouds.6 mph79%29.83 "HgN/A
5:00 PM88 °FPassing clouds.8 mph75%29.83 "HgN/A
4:00 PM91 °FScattered clouds.5 mph63%29.83 "HgN/A
3:00 PM93 °FScattered clouds.3 mph59%29.83 "HgN/A
2:00 PM90 °FScattered clouds.7 mph67%29.86 "HgN/A
1:00 PM90 °FScattered clouds.7 mph67%29.92 "HgN/A
Weather by CustomWeather, © 2015

See weather overviewHow to use our weather pages